User: anonymous   Login
Location: Unspecified
(0.0000°N, 0.0000°E)
Time: 19:07:08
(UTC+00:00)
Language:

OFEQ 7 - Orbit

View from above orbital plane
View from above orbital plane
View from above satellite
View from above satellite

Ground track
Ground track

The orbit data is extracted from the following two-line orbital elements,

1 31601U 07025A   21276.14299526 0.00004800  00000-0  16540-3 0    05
2 31601 141.7093 180.6944 0005498 249.2591 110.7401 15.29099636    02
Epoch (UTC): 03 October 2021 03:25:54
Eccentricity: 0.0005498
inclination: 141.7093°
perigee height: 475 km
apogee height: 482 km
right ascension of ascending node: 180.6944°
argument of perigee: 249.2591°
revolutions per day: 15.29099636
mean anomaly at epoch: 110.7401°
orbit number at epoch: 0

The dashed part of the orbit path shows where the satellite is in the earth's shadow,  

DLR